Hourly Weather Nachyn

Today, 21 September, Monday

Time Temperature Precipitation Wind Pressure Humidity
00:00 +13°C° 0 mm 6 mps 763 mmHg 72%
01:00 +13°C° 0 mm 5 mps 763 mmHg 73%
02:00 +13°C° 0 mm 5 mps 763 mmHg 74%
03:00 +12°C° 0 mm 5 mps 764 mmHg 73%
04:00 +12°C° 0 mm 4 mps 764 mmHg 75%
05:00 +12°C° 0 mm 4 mps 764 mmHg 76%
06:00 +12°C° 0 mm 4 mps 764 mmHg 77%
07:00 +13°C° 0 mm 4 mps 764 mmHg 72%
08:00 +16°C° 0 mm 3 mps 764 mmHg 66%
09:00 +18°C° 0 mm 3 mps 765 mmHg 61%
10:00 +19°C° 0 mm 2 mps 764 mmHg 59%
11:00 +20°C° 0 mm 2 mps 764 mmHg 56%
12:00 +22°C° 0 mm 1 mps 764 mmHg 53%
13:00 +22°C° 0 mm 1 mps 764 mmHg 55%
14:00 +21°C° 0 mm 2 mps 764 mmHg 57%
15:00 +20°C° 0 mm 2 mps 764 mmHg 58%
16:00 +19°C° 0 mm 2 mps 764 mmHg 64%
17:00 +18°C° 0 mm 3 mps 764 mmHg 71%
18:00 +16°C° 0 mm 3 mps 764 mmHg 77%
19:00 +16°C° 0 mm 2 mps 765 mmHg 78%
20:00 +15°C° 0 mm 2 mps 765 mmHg 78%
21:00 +14°C° 0 mm 2 mps 765 mmHg 79%
22:00 +14°C° 0 mm 2 mps 765 mmHg 78%
23:00 +14°C° 0 mm 2 mps 765 mmHg 78%

Tomorrow, 22 September, Tuesday

Time Temperature Precipitation Wind Pressure Humidity
00:00 +14°C° 0 mm 2 mps 765 mmHg 78%
01:00 +14°C° 0 mm 2 mps 765 mmHg 78%
02:00 +14°C° 0 mm 2 mps 766 mmHg 78%
03:00 +14°C° 0 mm 2 mps 766 mmHg 78%
04:00 +13°C° 0 mm 2 mps 766 mmHg 79%
05:00 +13°C° 0 mm 2 mps 766 mmHg 81%
06:00 +13°C° 0 mm 2 mps 766 mmHg 83%
07:00 +14°C° 0 mm 2 mps 766 mmHg 79%
08:00 +16°C° 0 mm 2 mps 766 mmHg 75%
09:00 +18°C° 0 mm 2 mps 766 mmHg 71%
10:00 +19°C° 0 mm 2 mps 766 mmHg 70%
11:00 +19°C° 0 mm 2 mps 766 mmHg 69%
12:00 +20°C° 0 mm 2 mps 766 mmHg 68%
13:00 +20°C° 0 mm 3 mps 765 mmHg 68%
14:00 +20°C° 0 mm 3 mps 765 mmHg 69%
15:00 +20°C° 0 mm 4 mps 764 mmHg 70%
16:00 +19°C° 0 mm 3 mps 765 mmHg 76%
17:00 +17°C° 0 mm 3 mps 765 mmHg 83%
18:00 +16°C° 0 mm 3 mps 765 mmHg 89%
19:00 +16°C° 0.1 mm 3 mps 765 mmHg 90%
20:00 +16°C° 0.1 mm 3 mps 766 mmHg 92%
21:00 +16°C° 0.1 mm 2 mps 766 mmHg 93%
22:00 +16°C° 0.3 mm 2 mps 766 mmHg 93%
23:00 +16°C° 0.3 mm 2 mps 766 mmHg 93%

Day after tomorrow, 23 September, Wednesday

Time Temperature Precipitation Wind Pressure Humidity
00:00 +16°C° 0.3 mm 2 mps 766 mmHg 93%
01:00 +16°C° 0.1 mm 1 mps 766 mmHg 93%
02:00 +15°C° 0.1 mm 1 mps 766 mmHg 93%
03:00 +15°C° 0.1 mm 1 mps 766 mmHg 92%
04:00 +15°C° 0 mm 1 mps 766 mmHg 93%
05:00 +15°C° 0 mm 1 mps 766 mmHg 93%
06:00 +15°C° 0 mm 1 mps 767 mmHg 94%
07:00 +16°C° 0 mm 1 mps 767 mmHg 91%
08:00 +18°C° 0 mm 1 mps 767 mmHg 89%
09:00 +19°C° 0 mm 1 mps 767 mmHg 87%
10:00 +19°C° 0 mm 1 mps 767 mmHg 81%
11:00 +19°C° 0 mm 2 mps 766 mmHg 76%
12:00 +20°C° 0 mm 2 mps 766 mmHg 71%
13:00 +20°C° 0 mm 2 mps 766 mmHg 72%
14:00 +19°C° 0 mm 2 mps 766 mmHg 74%
15:00 +19°C° 0 mm 2 mps 765 mmHg 75%
16:00 +18°C° 0 mm 2 mps 765 mmHg 81%
17:00 +17°C° 0 mm 2 mps 766 mmHg 86%
18:00 +16°C° 0 mm 2 mps 766 mmHg 92%
19:00 +16°C° 0.1 mm 2 mps 766 mmHg 92%
20:00 +16°C° 0.1 mm 2 mps 766 mmHg 93%
21:00 +16°C° 0.1 mm 2 mps 767 mmHg 94%
22:00 +15°C° 0.1 mm 1 mps 766 mmHg 94%
23:00 +15°C° 0.1 mm 1 mps 766 mmHg 94%

24 September, Thursday

Time Temperature Precipitation Wind Pressure Humidity
00:00 +15°C° 0.1 mm 1 mps 766 mmHg 94%
01:00 +15°C° 0 mm 1 mps 766 mmHg 95%
02:00 +15°C° 0 mm 2 mps 766 mmHg 95%
03:00 +15°C° 0 mm 2 mps 765 mmHg 95%
04:00 +15°C° 0 mm 2 mps 766 mmHg 95%
05:00 +15°C° 0 mm 2 mps 766 mmHg 94%
06:00 +15°C° 0 mm 2 mps 766 mmHg 94%
07:00 +16°C° 0.1 mm 2 mps 766 mmHg 92%
08:00 +16°C° 0.1 mm 2 mps 766 mmHg 90%
09:00 +17°C° 0.1 mm 3 mps 766 mmHg 88%
10:00 +18°C° 0.1 mm 2 mps 765 mmHg 82%
11:00 +19°C° 0.1 mm 2 mps 765 mmHg 76%
12:00 +21°C° 0.1 mm 1 mps 765 mmHg 70%
13:00 +21°C° 0 mm 1 mps 764 mmHg 72%
14:00 +19°C° 0 mm 2 mps 764 mmHg 75%
15:00 +19°C° 0 mm 2 mps 764 mmHg 77%
16:00 +18°C° 0.2 mm 2 mps 764 mmHg 82%
17:00 +17°C° 0.2 mm 2 mps 764 mmHg 87%
18:00 +16°C° 0.2 mm 2 mps 764 mmHg 92%
19:00 +16°C° 0.4 mm 2 mps 764 mmHg 93%
20:00 +16°C° 0.4 mm 3 mps 764 mmHg 94%
21:00 +16°C° 0.4 mm 3 mps 764 mmHg 95%
22:00 +15°C° 0.7 mm 4 mps 764 mmHg 96%
23:00 +15°C° 0.7 mm 4 mps 764 mmHg 96%

25 September, Friday

Time Temperature Precipitation Wind Pressure Humidity
00:00 +17°C° 0.7 mm 4 mps 764 mmHg 96%
01:00 +15°C° 0.4 mm 4 mps 764 mmHg 96%
02:00 +15°C° 0.4 mm 4 mps 764 mmHg 96%
03:00 +15°C° 0.4 mm 4 mps 764 mmHg 96%
04:00 +16°C° 0.2 mm 3 mps 764 mmHg 95%
05:00 +16°C° 0.2 mm 3 mps 764 mmHg 95%
06:00 +16°C° 0.2 mm 2 mps 764 mmHg 95%
07:00 +16°C° 0.1 mm 2 mps 764 mmHg 92%
08:00 +17°C° 0.1 mm 2 mps 764 mmHg 90%
09:00 +18°C° 0.1 mm 2 mps 764 mmHg 87%
10:00 +18°C° 0.2 mm 2 mps 764 mmHg 86%
11:00 +18°C° 0.2 mm 2 mps 764 mmHg 86%
12:00 +19°C° 0.2 mm 3 mps 764 mmHg 85%
13:00 +19°C° 0.1 mm 2 mps 763 mmHg 85%
14:00 +20°C° 0.1 mm 1 mps 763 mmHg 84%
15:00 +20°C° 0.1 mm 1 mps 763 mmHg 83%
16:00 +19°C° 0 mm 1 mps 763 mmHg 85%
17:00 +18°C° 0 mm 1 mps 763 mmHg 88%
18:00 +17°C° 0 mm 2 mps 763 mmHg 90%
19:00 +16°C° 0 mm 1 mps 763 mmHg 90%
20:00 +15°C° 0 mm 1 mps 764 mmHg 90%
21:00 +14°C° 0 mm 0 mps 764 mmHg 90%
22:00 +15°C° 0 mm 1 mps 764 mmHg 91%
23:00 +14°C° 0 mm 1 mps 764 mmHg 91%

26 September, Saturday

Time Temperature Precipitation Wind Pressure Humidity
00:00 +14°C° 0 mm 1 mps 765 mmHg 91%
01:00 +14°C° 0 mm 1 mps 764 mmHg 91%
02:00 +15°C° 0 mm 1 mps 764 mmHg 90%
03:00 +15°C° 0 mm 1 mps 764 mmHg 90%
04:00 +15°C° 0 mm 1 mps 764 mmHg 90%
05:00 +15°C° 0 mm 1 mps 765 mmHg 90%
06:00 +15°C° 0 mm 1 mps 765 mmHg 91%
07:00 +16°C° 0 mm 1 mps 765 mmHg 86%
08:00 +18°C° 0 mm 1 mps 765 mmHg 81%
09:00 +20°C° 0 mm 1 mps 765 mmHg 76%
10:00 +20°C° 0 mm 1 mps 765 mmHg 76%
11:00 +19°C° 0 mm 2 mps 765 mmHg 75%
12:00 +19°C° 0 mm 2 mps 765 mmHg 74%
13:00 +19°C° 0 mm 2 mps 765 mmHg 75%
14:00 +18°C° 0 mm 2 mps 765 mmHg 77%
15:00 +18°C° 0 mm 2 mps 764 mmHg 78%
16:00 +17°C° 0 mm 2 mps 765 mmHg 82%
17:00 +16°C° 0 mm 1 mps 765 mmHg 86%
18:00 +14°C° 0 mm 0 mps 765 mmHg 91%
19:00 +15°C° 0 mm 1 mps 765 mmHg 91%
20:00 +15°C° 0 mm 1 mps 766 mmHg 92%
21:00 +14°C° 0 mm 2 mps 766 mmHg 92%
22:00 +14°C° 0 mm 2 mps 766 mmHg 91%
23:00 +14°C° 0 mm 2 mps 766 mmHg 89%
Show more